Hourly Data Report for October 04, 2017

All times are specified in Local Standard Time (LST). Add 1 hour to adjust for Daylight Saving Time where and when it is observed.

NORTH BAY A
ONTARIO

46°21'50.000" N
79°25'27.000" W
370.30 m
6085680
71731
YYB

Download Data

Hourly Data (October 2017)
Hourly Data Report for October 4, 2017
Temp Definition
°C
Dew Point Temp Definition
°C
Rel Hum Definition
%
Wind Dir Definition
10's deg

Wind Spd Definition
km/h
Visibility Definition
km
Stn Press Definition
kPa
Hmdx Definition


Wind Chill Definition


Weather Definition


TIME
00:00 Legend Double Dagger 19.1 12.2 64 20 17 16.1 97.84     LegendNANA
01:00 Legend Double Dagger 19.0 12.9 67 21 22 16.1 97.80     LegendNANA
02:00 Legend Double Dagger 17.3 14.2 82 21 13 16.1 97.74     Rain
03:00 Legend Double Dagger 17.9 14.0 78 20 18 16.1 97.66     LegendNANA
04:00 Legend Double Dagger 18.0 14.0 77 20 17 16.1 97.59     LegendNANA
05:00 Legend Double Dagger 18.5 14.5 77 21 21 16.1 97.56     LegendNANA
06:00 Legend Double Dagger 18.4 14.9 80 22 18 16.1 97.50     LegendNANA
07:00 Legend Double Dagger 17.5 16.0 91 22 17 16.1 97.49     LegendNANA
08:00 Legend Double Dagger 18.1 17.1 94 24 17 4.8 97.45     Moderate Rain,Fog
09:00 Legend Double Dagger 18.3 17.5 95 24 18 4.0 97.40     Rain,Fog
10:00 Legend Double Dagger 18.3 17.5 95 24 22 6.4 97.32     Rain,Fog
11:00 Legend Double Dagger 18.3 17.5 95 25 22 11.3 97.25     Rain
12:00 Legend Double Dagger 18.1 17.3 95 25 24 16.1 97.22     LegendNANA
13:00 Legend Double Dagger 17.8 16.7 93 26 18 16.1 97.15     LegendNANA
14:00 Legend Double Dagger 19.3 16.6 84 24 22 16.1 97.10     LegendNANA
15:00 Legend Double Dagger 18.4 15.5 83 24 28 16.1 97.05     LegendNANA
16:00 Legend Double Dagger 17.6 14.4 81 25 26 16.1 97.09     LegendNANA
17:00 Legend Double Dagger 16.1 13.1 82 25 22 16.1 97.14     LegendNANA
18:00 Legend Double Dagger 14.8 10.5 75 28 15 16.1 97.21     LegendNANA
19:00 Legend Double Dagger 13.0 8.3 73 29 13 16.1 97.34     LegendNANA
20:00 Legend Double Dagger 11.9 7.5 74 28 11 16.1 97.42     LegendNANA
21:00 Legend Double Dagger 10.8 7.0 77 30 11 16.1 97.44     LegendNANA
22:00 Legend Double Dagger 9.6 6.7 82 30 9 16.1 97.47     LegendNANA
23:00 Legend Double Dagger 8.5 6.1 85 29 5 16.1 97.50     LegendNANA

Notes on Data Quality.

Legend

  • E = Estimated
  • M = Missing
  • NA = Not Available
  • ‡ = Partner data that is not subject to review by the National Climate Archives
Date modified: